EDT,Max TemperatureF,Mean TemperatureF,Min TemperatureF,Max Dew PointF,MeanDew PointF,Min DewpointF,Max Humidity, Mean Humidity, Min Humidity, Max Sea Level PressureIn, Mean Sea Level PressureIn, Min Sea Level PressureIn, Max VisibilityMiles, Mean VisibilityMiles, Min VisibilityMiles, Max Wind SpeedMPH, Mean Wind SpeedMPH, Max Gust SpeedMPH,PrecipitationIn, CloudCover, Events, WindDirDegrees
2012-9-1,87,82,76,78,75,73,91,81,70,30.12,30.08,30.03,10,10,5,14,5,20,0.18,3,Rain,67
2012-9-2,88,83,78,76,74,72,85,74,63,30.06,30.01,29.97,10,10,10,13,5,16,0.00,2,,59
2012-9-3,87,83,79,76,74,73,85,78,70,30.06,30.01,29.98,10,10,10,9,5,15,0.00,0,,114
2012-9-4,87,81,75,77,74,70,85,80,74,30.06,30.01,29.96,10,8,1,16,7,22,1.39,3,Rain,143
2012-9-5,86,84,81,77,74,72,85,77,69,30.01,29.99,29.96,10,10,10,12,9,14,0.00,1,,156
2012-9-6,86,84,81,76,75,73,85,78,70,30.05,30.00,29.97,10,10,10,12,6,17,0.00,1,Tornado,164
2012-9-7,86,84,81,74,73,72,74,70,65,30.02,29.98,29.94,10,10,10,13,6,16,0.00,0,,166
2012-9-8,86,84,81,75,73,71,79,72,65,30.01,29.96,29.92,10,10,10,13,6,16,0.00,1,,172
2012-9-9,87,84,81,76,74,71,79,72,65,30.03,29.99,29.96,10,10,10,13,8,17,0.00,1,,236
2012-9-10,87,83,79,77,74,71,85,75,65,30.06,30.02,29.98,10,10,10,14,6,17,0.00,1,,275
2012-9-11,88,84,80,77,75,74,85,77,68,30.08,30.03,30.00,10,10,10,16,5,21,T,1,Rain,334
2012-9-12,90,84,77,76,74,71,91,75,59,30.05,30.01,29.96,10,10,10,18,10,26,0.05,3,Thunderstorm,67
2012-9-13,87,82,76,77,75,73,91,78,65,30.04,29.98,29.93,10,9,1,21,10,26,0.98,5,Rain-Thunderstorm,97
2012-9-14,88,83,77,77,75,73,91,80,68,30.02,29.98,29.94,10,10,10,16,6,20,0.04,2,Rain-Thunderstorm,71
2012-9-15,86,83,79,76,75,73,85,78,70,30.04,29.99,29.95,10,10,10,18,10,23,0.02,1,,98
2012-9-16,84,80,76,76,74,72,85,80,74,30.03,29.98,29.95,10,10,3,23,10,30,0.50,4,Rain-Thunderstorm,117
2012-9-17,86,81,75,78,75,72,91,83,74,30.01,29.97,29.92,10,10,3,17,9,22,0.51,4,Rain-Thunderstorm,134
2012-9-18,87,84,81,79,77,73,85,79,72,30.01,29.97,29.93,10,10,5,22,11,29,0.00,1,,201
2012-9-19,88,82,76,77,74,70,87,76,65,30.06,30.00,29.92,10,10,10,7,7,16,0.00,0,,203
2012-9-20,89,82,74,77,75,71,85,75,65,30.03,29.99,29.92,10,10,5,24,7,30,0.35,3,Rain-Thunderstorm,80
2012-9-21,84,79,73,75,73,68,87,81,74,30.04,29.95,29.90,10,10,6,21,9,25,0.26,4,Rain-Thunderstorm,87
2012-9-22,85,81,76,76,74,72,94,82,70,30.03,29.97,29.92,10,10,6,18,6,24,0.16,3,Rain-Thunderstorm,95
2012-9-23,87,84,80,76,75,73,85,78,70,30.07,30.03,29.99,10,10,10,14,5,17,T,2,Rain,34
2012-9-24,83,80,77,75,73,68,91,79,67,30.07,30.02,29.98,10,10,10,10,5,15,0.02,3,Rain,55
2012-9-25,85,82,79,76,74,73,85,78,70,30.07,30.03,29.99,10,10,10,12,6,15,T,1,Rain,60
2012-9-26,86,81,76,78,76,72,91,83,74,30.09,30.04,29.99,10,10,10,20,6,24,0.07,1,Rain,80
2012-9-27,88,82,76,78,76,72,94,82,70,30.08,30.04,30.00,10,10,6,16,5,20,0.30,2,Rain,48
2012-9-28,88,83,77,77,75,70,91,81,70,30.03,29.98,29.92,10,9,1,21,5,25,0.70,3,Rain-Thunderstorm,73
2012-9-29,87,83,78,77,75,72,91,78,65,29.98,29.92,29.86,10,10,10,15,5,18,0.00,1,,98
2012-9-30,86,83,80,76,74,72,85,75,65,29.90,29.85,29.79,10,10,10,17,10,22,T,1,,118